KC5TIL Weather Reports


Display with metric or nautical units.
time (UTC)temp
F
wind
direction
speed
MPH
gust
MPH
rain 1hr
in
rain 24hr
in
rain mn
in
humidity
%
barometer
mb
20260504213851 83 142 2.0 9.0 0.00 0.00 0.00 57 1007.8
20260504213347 83 149 1.0 3.0 0.00 0.00 0.00 57 1007.9
20260504212844 83 142 2.0 9.0 0.00 0.00 0.00 57 1007.8
20260504212340 84 112 3.0 7.0 0.00 0.00 0.00 57 1007.8
20260504211838 84 119 1.0 5.0 0.00 0.00 0.00 57 1008.1
20260504211334 84 181 2.0 8.0 0.00 0.00 0.00 56 1008.3
20260504210832 83 99 1.0 8.0 0.00 0.00 0.00 58 1008.1
20260504210329 83 170 4.0 8.0 0.00 0.00 0.00 58 1008.1
20260504205826 84 152 2.0 6.0 0.00 0.00 0.00 57 1008.4
20260504205323 84 187 2.0 5.0 0.00 0.00 0.00 56 1008.4
20260504204821 84 152 1.0 3.0 0.00 0.00 0.00 56 1008.5
20260504204320 84 132 2.0 6.0 0.00 0.00 0.00 56 1008.7
20260504203819 83 113 1.0 8.0 0.00 0.00 0.00 56 1008.7
20260504203315 84 177 1.0 3.0 0.00 0.00 0.00 57 1008.8
20260504202810 83 128 3.0 6.0 0.00 0.00 0.00 56 1008.7
20260504202308 84 247 3.0 5.0 0.00 0.00 0.00 54 1009.1
20260504201805 84 68 2.0 5.0 0.00 0.00 0.00 55 1009.2
20260504201302 83 184 5.0 10.0 0.00 0.00 0.00 54 1009.4
20260504200800 83 127 1.0 5.0 0.00 0.00 0.00 56 1009.5
20260504200256 82 71 1.0 8.0 0.00 0.00 0.00 57 1009.6
20260504195752 83 168 2.0 5.0 0.00 0.00 0.00 56 1009.8
20260504195248 82 136 2.0 3.0 0.00 0.00 0.00 57 1010.0
20260504194745 82 172 5.0 14.0 0.00 0.00 0.00 57 1010.0
20260504194241 82 152 1.0 8.0 0.00 0.00 0.00 57 1010.2
20260504193738 82 111 1.0 7.0 0.00 0.00 0.00 57 1010.2
20260504193235 82 203 4.0 6.0 0.00 0.00 0.00 57 1010.5
20260504192734 81 118 3.0 6.0 0.00 0.00 0.00 56 1010.5
20260504192231 82 148 3.0 3.0 0.00 0.00 0.00 58 1010.3
20260504191730 81 132 3.0 8.0 0.00 0.00 0.00 60 1010.7
20260504191226 81 185 3.0 10.0 0.00 0.00 0.00 57 1010.6
20260504190721 81 193 4.0 9.0 0.00 0.00 0.00 58 1010.9
20260504190218 81 128 5.0 8.0 0.00 0.00 0.00 58 1011.0
20260504185715 81 79 3.0 5.0 0.00 0.00 0.00 58 1011.0
20260504185212 81 183 3.0 5.0 0.00 0.00 0.00 57 1011.1
20260504184708 81 183 3.0 5.0 0.00 0.00 0.00 58 1011.2
20260504184203 81 117 2.0 6.0 0.00 0.00 0.00 59 1011.1
20260504183700 80 135 1.0 5.0 0.00 0.00 0.00 56 1011.4
20260504183157 80 202 2.0 3.0 0.00 0.00 0.00 58 1011.2
20260504182655 81 135 1.0 6.0 0.00 0.00 0.00 59 1011.5
20260504182152 81 158 2.0 7.0 0.00 0.00 0.00 58 1011.5
20260504181650 82 172 1.0 8.0 0.00 0.00 0.00 58 1011.6
20260504181147 80 199 3.0 5.0 0.00 0.00 0.00 58 1011.7
20260504180646 80 151 1.0 7.0 0.00 0.00 0.00 60 1011.8
20260504180144 79 181 4.0 8.0 0.00 0.00 0.00 59 1011.9
20260504175641 78 141 5.0 6.0 0.00 0.00 0.00 60 1011.8
20260504175137 80 92 5.0 7.0 0.00 0.00 0.00 58 1011.9
20260504174636 80 146 2.0 6.0 0.00 0.00 0.00 57 1012.2
20260504174132 79 270 1.0 8.0 0.00 0.00 0.00 59 1012.0
20260504173629 78 172 2.0 6.0 0.00 0.00 0.00 58 1012.1
20260504173127 79 154 3.0 5.0 0.00 0.00 0.00 60 1012.3
20260504172623 78 118 2.0 8.0 0.00 0.00 0.00 60 1012.4
20260504172120 79 148 1.0 5.0 0.00 0.00 0.00 58 1012.3
20260504171616 78 182 1.0 11.0 0.00 0.00 0.00 61 1012.4
20260504171114 78 192 3.0 10.0 0.00 0.00 0.00 60 1012.7
20260504170609 77 181 2.0 5.0 0.00 0.00 0.00 61 1012.5
20260504170107 77 209 3.0 9.0 0.00 0.00 0.00 60 1012.8
20260504150952 73 222 3.0 5.0 0.00 0.00 0.00 64 1014.1
20260504150450 73 254 1.0 8.0 0.00 0.00 0.00 64 1014.2
20260504140916 70 127 2.0 6.0 0.00 0.00 0.00 68 1014.6
20260504140412 70 190 4.0 7.0 0.00 0.00 0.00 68 1014.6
20260504130332 67 161 1.0 3.0 0.00 0.00 0.00 72 1014.9
20260504120255 63 132 0.0 2.0 0.00 0.00 0.00 78 1014.6
20260504110218 62 127 0.0 3.0 0.00 0.00 0.00 78 1014.7
20260504100137 62 107 2.0 3.0 0.00 0.00 0.00 76 1015.0
20260504081530 63 152 2.0 2.0 0.00 0.00 0.00 71 1015.5
20260504081025 63 173 1.0 5.0 0.00 0.00 0.00 71 1015.4
20260504080522 63 131 1.0 1.0 0.00 0.00 0.00 71 1015.3
20260504050334 66 112 0.0 1.0 0.00 0.00 0.00 62 1017.1
20260504045832 66 155 1.0 2.0 0.00 0.00 0.00 63 1017.2
20260504045326 66 125 0.0 2.0 0.00 0.00 0.00 62 1017.0
20260504044824 66 116 0.0 3.0 0.00 0.00 0.00 62 1017.1
20260504044321 66 140 1.0 2.0 0.00 0.00 0.00 61 1017.2
20260504043818 67 140 0.0 1.0 0.00 0.00 0.00 61 1017.3
20260504043315 67 130 1.0 2.0 0.00 0.00 0.00 60 1017.1
20260504042813 66 148 1.0 2.0 0.00 0.00 0.00 60 1017.2
20260504042309 66 137 1.0 2.0 0.00 0.00 0.00 60 1017.3
20260504041805 67 120 1.0 1.0 0.00 0.00 0.00 60 1017.4
20260504041301 67 113 0.0 1.0 0.00 0.00 0.00 60 1017.4
20260504040758 67 124 0.0 1.0 0.00 0.00 0.00 59 1017.4
20260504040255 67 120 1.0 3.0 0.00 0.00 0.00 59 1017.5
20260504035751 67 137 0.0 1.0 0.00 0.00 0.00 59 1017.2
20260504035248 67 128 0.0 0.0 0.00 0.00 0.00 60 1017.1
20260504034745 67 121 0.0 2.0 0.00 0.00 0.00 58 1017.3
20260504034243 68 142 1.0 1.0 0.00 0.00 0.00 59 1017.1
20260504033740 68 105 0.0 1.0 0.00 0.00 0.00 59 1017.1
20260504033238 68 179 2.0 3.0 0.00 0.00 0.00 58 1017.1
20260504032734 68 99 1.0 1.0 0.00 0.00 0.00 59 1017.2
20260504032231 68 100 1.0 2.0 0.00 0.00 0.00 58 1017.2
20260504031728 68 125 1.0 5.0 0.00 0.00 0.00 58 1017.1
20260504031226 68 218 1.0 1.0 0.00 0.00 0.00 57 1017.3
20260504030721 68 82 0.0 5.0 0.00 0.00 0.00 58 1017.1
20260504030219 68 127 0.0 1.0 0.00 0.00 0.00 58 1017.1
20260504025715 68 125 1.0 1.0 0.00 0.00 0.00 57 1017.0
20260504025212 68 118 0.0 1.0 0.00 0.00 0.00 56 1016.9
20260504024709 69 156 1.0 2.0 0.00 0.00 0.00 56 1016.9
20260504024205 69 148 0.0 2.0 0.00 0.00 0.00 55 1016.8
20260504023702 69 123 2.0 3.0 0.00 0.00 0.00 54 1016.7
20260504023158 70 132 0.0 1.0 0.00 0.00 0.00 54 1016.8
20260504022655 70 145 1.0 2.0 0.00 0.00 0.00 53 1016.7
20260504022150 70 130 1.0 2.0 0.00 0.00 0.00 52 1016.9
20260504021649 70 124 1.0 3.0 0.00 0.00 0.00 52 1016.9
20260504021145 71 139 0.0 1.0 0.00 0.00 0.00 51 1016.7
20260504020642 71 119 0.0 1.0 0.00 0.00 0.00 51 1016.8
20260504020138 71 149 1.0 2.0 0.00 0.00 0.00 50 1016.8
20260504015635 71 142 0.0 2.0 0.00 0.00 0.00 49 1016.7
20260504015131 72 126 0.0 3.0 0.00 0.00 0.00 48 1016.7
20260504014627 72 158 1.0 2.0 0.00 0.00 0.00 48 1016.7
20260504014124 72 121 0.0 1.0 0.00 0.00 0.00 48 1016.7
20260504013622 73 210 1.0 2.0 0.00 0.00 0.00 47 1016.6
20260504013119 73 123 1.0 2.0 0.00 0.00 0.00 46 1016.5
20260504012616 73 135 0.0 2.0 0.00 0.00 0.00 46 1016.3
20260504012114 73 175 2.0 3.0 0.00 0.00 0.00 45 1016.5
20260504011610 74 107 0.0 6.0 0.00 0.00 0.00 45 1016.3
20260504011107 74 135 1.0 2.0 0.00 0.00 0.00 45 1016.2
20260504010602 74 129 0.0 2.0 0.00 0.00 0.00 44 1016.3
20260504010059 74 114 1.0 5.0 0.00 0.00 0.00 45 1016.3
20260504005555 75 195 1.0 2.0 0.00 0.00 0.00 43 1016.2
20260504005053 75 150 1.0 6.0 0.00 0.00 0.00 43 1016.1
20260504004551 75 143 1.0 5.0 0.00 0.00 0.00 42 1016.1
20260504004047 76 118 0.0 3.0 0.00 0.00 0.00 42 1015.9
20260504003543 76 135 1.0 5.0 0.00 0.00 0.00 42 1015.7
20260504003040 77 63 2.0 3.0 0.00 0.00 0.00 41 1015.8
20260504002537 77 153 2.0 3.0 0.00 0.00 0.00 41 1015.8
20260504002035 77 125 1.0 5.0 0.00 0.00 0.00 40 1015.9
20260504001533 78 162 2.0 3.0 0.00 0.00 0.00 39 1015.9
20260504001028 78 154 2.0 5.0 0.00 0.00 0.00 39 1015.9
20260504000526 78 205 3.0 3.0 0.00 0.00 0.00 38 1016.0
20260504000023 79 97 0.0 3.0 0.00 0.00 0.00 38 1015.9
20260503235521 78 153 1.0 5.0 0.00 0.00 0.00 37 1015.9
20260503235018 79 152 4.0 6.0 0.00 0.00 0.00 35 1016.1
20260503234515 79 220 1.0 3.0 0.00 0.00 0.00 36 1015.9
20260503234014 79 122 2.0 5.0 0.00 0.00 0.00 37 1015.9
20260503233510 80 133 1.0 5.0 0.00 0.00 0.00 39 1015.9
20260503233006 80 122 1.0 2.0 0.00 0.00 0.00 38 1016.1
20260503232503 80 132 1.0 5.0 0.00 0.00 0.00 35 1016.0
20260503232001 81 122 2.0 3.0 0.00 0.00 0.00 35 1016.2
20260503231458 81 130 3.0 3.0 0.00 0.00 0.00 35 1016.2
20260503230954 81 123 2.0 5.0 0.00 0.00 0.00 34 1016.2
20260503230451 81 103 0.0 2.0 0.00 0.00 0.00 35 1016.4
20260503225949 81 83 2.0 3.0 0.00 0.00 0.00 34 1016.3
20260503225445 81 169 1.0 5.0 0.00 0.00 0.00 37 1016.3
20260503224941 81 102 1.0 9.0 0.00 0.00 0.00 35 1016.3
20260503224438 81 98 1.0 6.0 0.00 0.00 0.00 36 1016.2
20260503223936 82 120 1.0 2.0 0.00 0.00 0.00 35 1016.3
20260503223433 82 104 0.0 3.0 0.00 0.00 0.00 35 1016.3
20260503222928 82 132 0.0 2.0 0.00 0.00 0.00 34 1016.2
20260503222427 81 141 0.0 2.0 0.00 0.00 0.00 36 1016.4
20260503221925 81 206 2.0 3.0 0.00 0.00 0.00 35 1016.5
20260503221423 82 155 2.0 5.0 0.00 0.00 0.00 34 1016.6
20260503220920 82 105 0.0 6.0 0.00 0.00 0.00 33 1016.8
20260503220416 82 168 1.0 2.0 0.00 0.00 0.00 36 1016.7
20260503215914 82 137 1.0 2.0 0.00 0.00 0.00 35 1016.7
20260503215410 83 120 3.0 5.0 0.00 0.00 0.00 34 1016.8
20260503214908 83 153 3.0 5.0 0.00 0.00 0.00 32 1016.9
20260503214405 83 138 2.0 7.0 0.00 0.00 0.00 33 1017.1